Location: Newark
(3.0500°N, 36.0167°E)
Time: 15:44:51
(UTC+00:00)

Transit 2A Rocket - Pass Details

Date: 25 August 2019
Orbit: 592 x 911 km, 66.7° (Epoch: 18 September)

Event Time Altitude Azimuth Distance (km) Brightness Sun altitude
Rises 13:55:20 0° 183° (S) 3,531 8.4 25.8°
Reaches altitude 10° 13:58:04 10° 175° (S) 2,594 7.7 25.1°
Maximum altitude 14:03:35 36° 110° (ESE) 1,382 6.1 23.8°
Drops below altitude 10° 14:08:57 10° 44° (NE) 2,523 7.4 22.5°
Sets 14:11:33 0° 36° (NE) 3,423 8.1 21.8°
